52,2013-07-17 19:27:32,1374089252,55.20787,-10.10259,3,2,2013-07-17 19:26:00,1374089160,16.49,1,15.8,0,4095,55.202,-10.0748,44,48
53,2013-07-17 20:06:09,1374091569,55.20268,-10.16442,2,2,2013-07-17 20:00:00,1374091200,15.09,10,15.8,30,4095,55.202,-10.0748,44,48
54,2013-07-17 21:06:11,1374095171,55.20787,-10.10259,2,2,2013-07-17 21:00:00,1374094800,15.08,11,15.8,30,0,55.2078,-10.0646,34,48
55,2013-07-17 22:06:11,1374098771,55.24723,-9.98976,10,4,2013-07-17 22:00:00,1374098400,15.03,16,15.8,30,60,55.2078,-10.0646,34,48
56,2013-07-17 23:06:10,1374102370,55.19766,-9.97886,3,2,2013-07-17 23:00:00,1374102000,15,12,15.8,30,120,55.2078,-10.0646,34,48
57,2013-07-18 00:06:10,1374105970,55.19253,-10.04073,2,1,2013-07-18 00:00:00,1374105600,14.98,10,15.8,30,0,55.2202,-10.042,34,44
58,2013-07-18 01:06:09,1374109569,55.24209,-10.0517,8,2,2013-07-18 01:00:00,1374109200,15.04,12,15.8,30,60,55.2202,-10.042,34,44
59,2013-07-18 02:06:09,1374113169,55.21816,-9.97886,2,3,2013-07-18 02:00:00,1374112800,15.04,11,15.8,30,120,55.2202,-10.042,34,44
60,2013-07-18 03:06:13,1374116773,55.23692,-10.11362,2,4,2013-07-18 03:00:00,1374116400,15.02,12,15.8,30,0,55.2302,-10.033,14,44
61,2013-07-18 04:06:22,1374120382,55.21303,-10.04073,2,1,2013-07-18 04:00:00,1374120000,15.02,13,15.8,30,60,55.2302,-10.033,14,44
62,2013-07-18 05:06:10,1374123970,55.24723,-9.98976,3,2,2013-07-18 05:00:00,1374123600,15.03,12,15.8,30,120,55.2302,-10.033,14,44
63,2013-07-18 06:06:11,1374127571,55.24723,-9.98976,2,1,2013-07-18 06:00:00,1374127200,15.05,12,15.8,30,0,55.2404,-10.0358,52,48
64,2013-07-18 07:06:12,1374131172,55.23692,-10.11362,2,1,2013-07-18 07:00:00,1374130800,15.12,13,15.8,30,60,55.2404,-10.0358,52,48
65,2013-07-18 08:06:09,1374134769,55.21303,-10.04073,6,0,2013-07-18 08:00:00,1374134400,15.15,10,15.8,30,120,55.2404,-10.0358,52,48
66,2013-07-18 09:06:13,1374138373,55.24209,-10.0517,3,30,2013-07-18 09:00:00,1374138000,15.19,11,15.8,30,0,55.2532,-10.0348,50,48
67,2013-07-18 10:06:10,1374141970,55.25088,-12.81542,189,2,2013-07-18 10:00:00,1374141600,15.22,9,15.8,30,60,55.2532,-10.0348,50,48
68,2013-07-18 11:06:09,1374145569,55.24723,-9.98976,2,2,2013-07-18 11:00:00,1374145200,15.22,9,15.8,30,120,55.2532,-10.0348,50,48
69,2013-07-18 12:06:11,1374149171,55.29101,-10.76663,95,3,2013-07-18 12:00:00,1374148800,15.19,8,15.8,30,0,55.2664,-10.0164,112,48
70,2013-07-18 13:06:21,1374152781,55.24723,-9.98976,4,2,2013-07-18 13:00:00,1374152400,15.22,10,15.8,30,60,55.2664,-10.0164,112,48
71,2013-07-18 14:06:11,1374156371,55.28126,-10.18663,69,2,2013-07-18 14:00:00,1374156000,15.28,9,15.8,30,120,55.2664,-10.0164,112,48
72,2013-07-18 15:06:11,1374159971,55.24723,-9.98976,5,3,2013-07-18 15:00:00,1374159600,15.36,13,15.8,30,0,55.2752,-9.99779999999998,32,44
73,2013-07-18 16:06:09,1374163569,55.13605,-7.67757,178,3,2013-07-18 16:00:00,1374163200,15.46,9,15.8,30,60,55.2752,-9.99779999999998,32,44
74,2013-07-18 17:06:15,1374167175,55.24723,-9.98976,6,3,2013-07-18 17:00:00,1374166800,15.45,12,15.8,30,120,55.2752,-9.99779999999998,32,44
75,2013-07-18 18:06:11,1374170771,55.17588,-6.48591,232,4,2013-07-18 18:00:00,1374170400,15.46,11,15.8,30,0,55.282,-9.9982,88,44
76,2013-07-18 19:06:10,1374174370,55.29679,-10.00068,6,2,2013-07-18 19:00:00,1374174000,15.41,11,15.8,30,60,55.282,-9.9982,88,44
77,2013-07-18 20:06:09,1374177969,55.29679,-10.00068,13,3,2013-07-18 20:00:00,1374177600,15.39,13,15.8,30,120,55.282,-9.9982,88,44
78,2013-07-18 21:06:10,1374181570,55.29679,-10.00068,4,6,2013-07-18 21:00:00,1374181200,15.44,9,15.8,30,0,55.2952,-9.999,62,48
79,2013-07-18 22:06:12,1374185172,55.2677,-9.98976,6,2,2013-07-18 22:00:00,1374184800,15.35,11,15.8,30,60,55.2952,-9.999,62,48
80,2013-07-18 23:06:11,1374188771,55.3019,-9.93865,3,7,2013-07-18 23:00:00,1374188400,15.43,12,15.8,30,120,55.2952,-9.999,62,48
81,2013-07-19 00:06:12,1374192372,55.3019,-9.93865,1,1,2013-07-19 00:00:00,1374192000,15.44,9,15.8,30,0,55.3084,-9.9838,32,44
82,2013-07-19 01:06:09,1374195969,55.53632,-5.90614,266,2,2013-07-19 01:00:00,1374195600,15.44,10,15.8,30,60,55.3084,-9.9838,32,44
83,2013-07-19 02:06:42,1374199602,55.29679,-10.00068,5,1,2013-07-19 02:00:00,1374199200,15.43,10,15.8,30,120,55.3084,-9.9838,32,44
84,2013-07-19 03:06:13,1374203173,55.35145,-9.94954,3,3,2013-07-19 03:00:00,1374202800,15.42,9,15.8,42,0,55.3208,-9.96619999999999,18,48
85,2013-07-19 04:06:09,1374206769,55.35145,-9.94954,3,2,2013-07-19 04:00:00,1374206400,15.37,13,15.8,30,60,55.3208,-9.96619999999999,18,48
86,2013-07-19 05:06:12,1374210372,55.34632,-10.01163,4,1,2013-07-19 05:00:00,1374210000,15.35,12,15.8,30,120,55.3208,-9.96619999999999,18,48
87,2013-07-19 06:06:12,1374213972,55.3019,-9.93865,3,3,2013-07-19 06:00:00,1374213600,15.27,13,15.8,30,0,55.3256,-9.96019999999999,62,40
88,2013-07-19 07:06:09,1374217569,55.29679,-10.00068,2,1,2013-07-19 07:00:00,1374217200,15.26,10,15.8,30,60,55.3256,-9.96019999999999,62,40
89,2013-07-19 08:06:10,1374221170,55.35145,-9.94954,11,2,2013-07-19 08:00:00,1374220800,15.27,14,15.8,30,120,55.3256,-9.96019999999999,62,40
90,2013-07-19 09:06:12,1374224772,55.32235,-9.93865,2,4,2013-07-19 09:00:00,1374224400,15.23,13,15.8,30,0,55.3322,-9.976,86,48
91,2013-07-19 10:06:10,1374228370,55.23392,-14.96792,325,3,2013-07-19 10:00:00,1374228000,15.23,14,15.8,30,60,55.3322,-9.976,86,48
92,2013-07-19 11:06:11,1374231971,55.3019,-9.93865,5,4,2013-07-19 11:00:00,1374231600,15.35,11,15.8,30,120,55.3322,-9.976,86,48
93,2013-07-19 12:06:12,1374235572,55.48983,-12.76219,190,3,2013-07-19 12:00:00,1374235200,15.42,10,15.8,30,0,55.3484,-9.9752,146,44
94,2013-07-19 13:06:18,1374239178,55.34632,-10.01163,1,2,2013-07-19 13:00:00,1374238800,15.51,12,15.8,30,60,55.3484,-9.9752,146,44
95,2013-07-19 14:06:11,1374242771,55.34632,-10.01163,3,2,2013-07-19 14:00:00,1374242400,15.62,13,15.8,30,120,55.3484,-9.9752,146,44
96,2013-07-19 15:06:10,1374246370,55.35145,-9.94954,2,4,2013-07-19 15:00:00,1374246000,15.66,12,15.8,30,0,55.3656,-9.9598,62,44
97,2013-07-19 16:06:11,1374249971,55.30249,-9.17238,84,3,2013-07-19 16:00:00,1374249600,15.69,13,15.8,30,60,55.3656,-9.9598,62,44
98,2013-07-19 17:06:15,1374253575,55.35145,-9.94954,2,3,2013-07-19 17:00:00,1374253200,15.69,11,15.8,30,120,55.3656,-9.9598,62,44
99,2013-07-19 18:06:13,1374257173,55.37071,-8.93326,96,2,2013-07-19 18:00:00,1374256800,15.73,15,15.8,30,0,55.3712,-9.94999999999999,80,48
100,2013-07-19 19:06:13,1374260773,55.40098,-9.96044,3,3,2013-07-19 19:00:00,1374260400,15.74,13,15.8,30,60,55.3712,-9.94999999999999,80,48
101,2013-07-19 20:06:11,1374264371,55.35145,-9.94954,13,8,2013-07-19 20:00:00,1374264000,15.71,14,15.8,30,120,55.3712,-9.94999999999999,80,48
102,2013-07-19 21:06:12,1374267972,55.38057,-9.96044,2,4,2013-07-19 21:00:00,1374267600,15.68,11,15.8,30,0,55.374,-9.9658,12,44
103,2013-07-19 22:06:21,1374271581,55.35145,-9.94954,4,1,2013-07-19 22:00:00,1374271200,15.65,14,15.8,30,60,55.374,-9.9658,12,44
104,2013-07-19 23:06:13,1374275173,55.34632,-10.01163,9,3,2013-07-19 23:00:00,1374274800,15.66,11,15.8,30,120,55.374,-9.9658,12,44
105,2013-07-20 00:06:10,1374278770,55.35145,-9.94954,4,1,2013-07-20 00:00:00,1374278400,15.65,12,15.8,30,0,55.3886,-9.96959999999999,110,48
106,2013-07-20 01:06:14,1374282374,55.50095,-7.61975,163,2,2013-07-20 01:00:00,1374282000,15.66,13,15.8,30,60,55.3886,-9.96959999999999,110,48
107,2013-07-20 02:06:12,1374285972,55.38057,-9.96044,3,2,2013-07-20 02:00:00,1374285600,15.64,15,15.8,30,120,55.3886,-9.96959999999999,110,48
108,2013-07-20 03:06:11,1374289571,55.43011,-9.97137,8,1,2013-07-20 03:00:00,1374289200,15.63,12,15.8,30,0,55.4032,-9.94239999999999,14,44
109,2013-07-20 04:06:13,1374293173,55.38567,-9.89826,2,2,2013-07-20 04:00:00,1374292800,15.62,11,15.8,30,60,55.4032,-9.94239999999999,14,44
110,2013-07-20 05:06:13,1374296773,55.38057,-9.96044,3,9,2013-07-20 05:00:00,1374296400,15.6,12,15.8,30,120,55.4032,-9.94239999999999,14,44
111,2013-07-20 06:06:10,1374300370,55.40098,-9.96044,2,2,2013-07-20 06:00:00,1374300000,15.6,10,15.8,30,0,55.4054,-9.9228,62,48
112,2013-07-20 07:06:22,1374303982,55.43522,-9.90912,13,1,2013-07-20 07:00:00,1374303600,15.59,11,15.8,30,60,55.4054,-9.9228,62,48
113,2013-07-20 08:06:15,1374307575,55.40607,-9.89826,2,0,2013-07-20 08:00:00,1374307200,15.63,10,15.8,30,120,55.4054,-9.9228,62,48
114,2013-07-20 09:06:12,1374311172,55.40098,-9.96044,2,1,2013-07-20 09:00:00,1374310800,15.76,10,15.8,30,0,55.402,-9.93099999999998,86,44
115,2013-07-20 10:06:16,1374314776,55.38057,-9.96044,7,0,2013-07-20 10:00:00,1374314400,15.82,9,15.8,30,60,55.402,-9.93099999999998,86,44
116,2013-07-20 11:06:12,1374318372,55.40098,-9.96044,1,2,2013-07-20 11:00:00,1374318000,16.1,11,15.8,30,120,55.402,-9.93099999999998,86,44
117,2013-07-20 12:06:14,1374321974,55.43011,-9.97137,12,3,2013-07-20 12:00:00,1374321600,16.4,11,15.8,30,0,55.4122,-9.9494,62,48
118,2013-07-20 13:06:21,1374325581,55.43011,-9.97137,5,2,2013-07-20 13:00:00,1374325200,16.54,10,15.8,30,60,55.4122,-9.9494,62,48
119,2013-07-20 14:06:11,1374329171,55.6015,-14.29787,10,7,2013-07-20 14:00:00,1374328800,16.66,8,15.8,30,120,55.4122,-9.9494,62,48
120,2013-07-20 15:06:15,1374332775,55.43522,-9.90912,3,2,2013-07-20 15:00:00,1374332400,16.7,11,15.8,30,0,55.4316,-9.93639999999999,62,44
121,2013-07-20 16:06:10,1374336370,55.51005,-11.34719,112,6,2013-07-20 16:00:00,1374336000,17.05,10,15.8,30,60,55.4316,-9.93639999999999,62,44
122,2013-07-20 17:06:16,1374339976,55.43011,-9.97137,2,2,2013-07-20 17:00:00,1374339600,17,10,15.8,30,120,55.4316,-9.93639999999999,62,44
123,2013-07-20 18:06:15,1374343575,55.3568,-9.12017,170,2,2013-07-20 18:00:00,1374343200,16.97,10,15.8,30,0,55.4376,-9.91979999999998,62,48
124,2013-07-20 19:06:15,1374347175,55.43522,-9.90912,2,2,2013-07-20 19:00:00,1374346800,16.99,11,15.8,30,60,55.4376,-9.91979999999998,62,48
125,2013-07-20 20:06:11,1374350771,55.37718,-8.42466,115,7,2013-07-20 20:00:00,1374350400,17.04,9,15.8,30,120,55.4376,-9.91979999999998,62,48
126,2013-07-20 21:06:12,1374354372,55.43011,-9.97137,2,2,2013-07-20 21:00:00,1374354000,16.91,9,15.8,30,0,55.4388,-9.9238,80,48
127,2013-07-20 22:06:11,1374357971,55.43011,-9.97137,3,6,2013-07-20 22:00:00,1374357600,16.81,8,15.8,30,60,55.4388,-9.9238,80,48
128,2013-07-20 23:06:11,1374361571,55.40607,-9.89826,2,9,2013-07-20 23:00:00,1374361200,16.73,10,15.8,30,120,55.4388,-9.9238,80,48
129,2013-07-21 00:06:10,1374365170,55.40098,-9.96044,2,2,2013-07-21 00:00:00,1374364800,16.82,10,15.8,30,0,55.4422,-9.93680000000001,62,48
130,2013-07-21 01:06:20,1374368780,55.48475,-9.92001,25,1,2013-07-21 01:00:00,1374368400,16.58,9,15.8,30,60,55.4422,-9.93680000000001,62,48
131,2013-07-21 02:06:13,1374372373,55.43522,-9.90912,2,6,2013-07-21 02:00:00,1374372000,16.78,8,15.8,30,120,55.4422,-9.93680000000001,62,48
132,2013-07-21 03:06:11,1374375971,55.56992,-7.31383,179,1,2013-07-21 03:00:00,1374375600,16.73,12,15.8,30,0,55.4526,-9.92659999999998,32,48
133,2013-07-21 04:06:13,1374379573,55.45049,-9.97137,2,1,2013-07-21 04:00:00,1374379200,16.66,10,15.8,30,60,55.4526,-9.92659999999998,32,48
134,2013-07-21 05:06:11,1374383171,55.46067,-9.84685,3,6,2013-07-21 05:00:00,1374382800,16.63,12,15.8,30,120,55.4526,-9.92659999999998,32,48
135,2013-07-21 06:06:11,1374386771,55.46067,-9.84685,2,0,2013-07-21 06:00:00,1374386400,16.63,9,15.8,30,0,55.4594,-9.9128,62,48
136,2013-07-21 07:06:08,1374390368,55.47963,-9.98233,3,1,2013-07-21 07:00:00,1374390000,16.61,10,15.8,30,60,55.4594,-9.9128,62,48
137,2013-07-21 08:06:10,1374393970,55.47963,-9.98233,3,0,2013-07-21 08:00:00,1374393600,16.53,10,15.8,30,120,55.4594,-9.9128,62,48
138,2013-07-21 09:06:13,1374397573,55.43011,-9.97137,4,3,2013-07-21 09:00:00,1374397200,16.53,11,15.8,30,0,55.4616,-9.92079999999999,10,44
139,2013-07-21 10:06:13,1374401173,55.48475,-9.92001,6,1,2013-07-21 10:00:00,1374400800,16.6,11,15.8,30,60,55.4616,-9.92079999999999,10,44
140,2013-07-21 11:06:09,1374404769,55.45559,-9.90912,2,2,2013-07-21 11:00:00,1374404400,16.68,13,15.8,30,120,55.4616,-9.92079999999999,10,44
141,2013-07-21 12:06:10,1374408370,55.47963,-9.98233,4,3,2013-07-21 12:00:00,1374408000,16.75,11,15.8,30,0,55.4632,-9.93680000000001,64,48
142,2013-07-21 13:06:15,1374411975,55.43011,-9.97137,4,1,2013-07-21 13:00:00,1374411600,16.76,15,15.8,30,60,55.4632,-9.93680000000001,64,48
143,2013-07-21 14:06:09,1374415569,55.71654,-14.36082,287,2,2013-07-21 14:00:00,1374415200,16.79,16,15.8,30,120,55.4632,-9.93680000000001,64,48
144,2013-07-21 15:06:13,1374419173,55.47963,-9.98233,2,5,2013-07-21 15:00:00,1374418800,17.07,12,15.8,30,0,55.4702,-9.93680000000001,58,48
145,2013-07-21 16:06:09,1374422769,55.57583,-11.82004,158,2,2013-07-21 16:00:00,1374422400,16.97,13,15.8,30,60,55.4702,-9.93680000000001,58,48
146,2013-07-21 17:06:12,1374426372,55.53935,-9.86852,9,1,2013-07-21 17:00:00,1374426000,16.79,12,15.8,30,120,55.4702,-9.93680000000001,58,48
147,2013-07-21 18:06:15,1374429975,55.50855,-10.70135,80,3,2013-07-21 18:00:00,1374429600,16.84,12,15.8,30,0,55.4788,-9.93099999999998,34,48
148,2013-07-21 19:06:12,1374433572,55.48475,-9.92001,5,3,2013-07-21 19:00:00,1374433200,16.87,13,15.8,30,60,55.4788,-9.93099999999998,34,48
149,2013-07-21 20:06:17,1374437177,55.52337,-10.76357,107,2,2013-07-21 20:00:00,1374436800,16.95,13,15.8,30,120,55.4788,-9.93099999999998,34,48
150,2013-07-21 21:06:10,1374440770,55.48475,-9.92001,4,1,2013-07-21 21:00:00,1374440400,16.81,11,15.8,30,0,55.4816,-9.93939999999998,38,44
151,2013-07-21 22:06:14,1374444374,55.45049,-9.97137,14,3,2013-07-21 22:00:00,1374444000,16.81,12,15.8,30,60,55.4816,-9.93939999999998,38,44
152,2013-07-21 23:06:09,1374447969,55.48475,-9.92001,3,8,2013-07-21 23:00:00,1374447600,16.77,12,15.8,30,120,55.4816,-9.93939999999998,38,44
153,2013-07-22 00:06:09,1374451569,55.43011,-9.97137,3,8,2013-07-22 00:00:00,1374451200,16.74,11,15.8,30,0,55.4768,-9.9546,56,44
154,2013-07-22 01:06:11,1374455171,55.49323,-10.1803,71,2,2013-07-22 01:00:00,1374454800,16.67,10,15.8,30,60,55.4768,-9.9546,56,44
155,2013-07-22 02:06:10,1374458770,55.47963,-9.98233,2,2,2013-07-22 02:00:00,1374458400,16.64,11,15.8,30,120,55.4768,-9.9546,56,44
156,2013-07-22 03:06:10,1374462370,55.49919,-8.96275,120,1,2013-07-22 03:00:00,1374462000,16.7,10,15.8,30,0,55.476,-9.95759999999999,32,48
157,2013-07-22 04:06:12,1374465972,55.48475,-9.92001,3,3,2013-07-22 04:00:00,1374465600,16.71,11,15.8,30,60,55.476,-9.95759999999999,32,48
158,2013-07-22 05:06:18,1374469578,55.47963,-9.98233,8,1,2013-07-22 05:00:00,1374469200,16.7,11,15.8,30,120,55.476,-9.95759999999999,32,48
159,2013-07-22 06:06:11,1374473171,55.47963,-9.98233,4,1,2013-07-22 06:00:00,1374472800,16.71,11,15.8,30,0,55.4808,-9.9528,56,48
160,2013-07-22 07:06:09,1374476769,55.47448,-10.04462,5,1,2013-07-22 07:00:00,1374476400,16.68,12,15.8,30,60,55.4808,-9.9528,56,48
161,2013-07-22 08:06:11,1374480371,55.50879,-9.99331,7,2,2013-07-22 08:00:00,1374480000,16.62,10,15.8,30,120,55.4808,-9.9528,56,48
162,2013-07-22 09:06:11,1374483971,55.48475,-9.92001,3,0,2013-07-22 09:00:00,1374483600,16.7,12,15.8,30,0,55.4788,-9.959,60,44
163,2013-07-22 10:06:11,1374487571,55.48475,-9.92001,1,0,2013-07-22 10:00:00,1374487200,16.77,10,15.8,30,60,55.4788,-9.959,60,44
164,2013-07-22 11:06:11,1374491171,55.45049,-9.97137,7,3,2013-07-22 11:00:00,1374490800,16.88,11,15.8,30,120,55.4788,-9.959,60,44
165,2013-07-22 12:06:13,1374494773,55.48475,-9.92001,2,4,2013-07-22 12:00:00,1374494400,16.95,11,15.8,30,0,55.4724,-9.97579999999999,34,48
166,2013-07-22 13:06:09,1374498369,55.47448,-10.04462,1,2,2013-07-22 13:00:00,1374498000,16.98,11,15.8,30,60,55.4724,-9.97579999999999,34,48
167,2013-07-22 14:06:09,1374501969,55.47448,-10.04462,3,3,2013-07-22 14:00:00,1374501600,17.11,12,15.8,30,120,55.4724,-9.97579999999999,34,48
168,2013-07-22 15:06:11,1374505571,55.43011,-9.97137,2,7,2013-07-22 15:00:00,1374505200,17.26,12,15.8,30,0,55.4716,-9.9828,62,44
169,2013-07-22 16:06:15,1374509175,55.45559,-9.90912,5,3,2013-07-22 16:00:00,1374508800,17.31,10,15.8,30,60,55.4716,-9.9828,62,44
170,2013-07-22 17:06:15,1374512775,55.47448,-10.04462,2,5,2013-07-22 17:00:00,1374512400,17.33,12,15.8,30,120,55.4716,-9.9828,62,44
171,2013-07-22 18:06:09,1374516369,55.64168,-13.14227,211,3,2013-07-22 18:00:00,1374516000,17.27,12,15.8,30,0,55.4758,-9.98139999999998,62,48
172,2013-07-22 19:06:10,1374519970,55.47963,-9.98233,3,3,2013-07-22 19:00:00,1374519600,17.2,13,15.8,30,60,55.4758,-9.98139999999998,62,48
173,2013-07-22 20:06:18,1374523578,55.47739,-10.36708,80,3,2013-07-22 20:00:00,1374523200,17.14,12,15.8,30,120,55.4758,-9.98139999999998,62,48
174,2013-07-22 21:06:09,1374527169,55.47448,-10.04462,3,2,2013-07-22 21:00:00,1374526800,17.04,13,15.8,30,0,55.4766,-9.98779999999999,16,44
175,2013-07-22 22:06:23,1374530783,55.43011,-9.97137,4,2,2013-07-22 22:00:00,1374530400,16.97,12,15.6,30,60,55.4766,-9.98779999999999,16,44
176,2013-07-22 23:06:13,1374534373,55.42497,-10.0336,7,2,2013-07-22 23:00:00,1374534000,17,12,15.6,30,120,55.4766,-9.98779999999999,16,44
177,2013-07-23 00:06:19,1374537979,55.43011,-9.97137,4,1,2013-07-23 00:00:00,1374537600,16.95,9,15.6,30,0,55.4666,-10.005,80,44
178,2013-07-23 01:06:12,1374541572,55.36376,-11.81718,137,2,2013-07-23 01:00:00,1374541200,16.89,11,15.6,30,60,55.4666,-10.005,80,44
179,2013-07-23 02:06:09,1374545169,55.42497,-10.0336,3,2,2013-07-23 02:00:00,1374544800,16.86,10,15.6,30,120,55.4666,-10.005,80,44
180,2013-07-23 03:06:09,1374548769,55.52413,-8.90021,105,2,2013-07-23 03:00:00,1374548400,16.9,9,15.6,30,0,55.4626,-10.014,32,48
181,2013-07-23 04:06:14,1374552374,55.43011,-9.97137,2,4,2013-07-23 04:00:00,1374552000,16.82,8,15.6,30,60,55.4626,-10.014,32,48
182,2013-07-23 05:06:19,1374555979,55.52186,-8.64982,108,1,2013-07-23 05:00:00,1374555600,16.78,7,15.6,30,120,55.4626,-10.014,32,48
183,2013-07-23 06:06:10,1374559570,55.47448,-10.04462,2,7,2013-07-23 06:00:00,1374559200,16.78,7,15.6,30,0,55.466,-10.0086,32,48
184,2013-07-23 07:06:10,1374563170,55.57607,-7.69945,180,0,2013-07-23 07:00:00,1374562800,16.79,9,15.6,30,60,55.466,-10.0086,32,48
185,2013-07-23 08:06:10,1374566770,55.47963,-9.98233,1,2,2013-07-23 08:00:00,1374566400,16.82,8,15.6,30,120,55.466,-10.0086,32,48
186,2013-07-23 09:06:13,1374570373,55.70994,-5.6155,288,2,2013-07-23 09:00:00,1374570000,16.64,10,15.6,30,0,55.4642,-10.0148,32,48
187,2013-07-23 10:06:20,1374573980,55.42497,-10.0336,5,1,2013-07-23 10:00:00,1374573600,16.78,9,15.6,30,60,55.4642,-10.0148,32,48
188,2013-07-23 11:06:17,1374577577,55.47448,-10.04462,2,15,2013-07-23 11:00:00,1374577200,16.78,10,15.6,30,120,55.4642,-10.0148,32,48
189,2013-07-23 12:06:11,1374581171,55.47448,-10.04462,8,2,2013-07-23 12:00:00,1374580800,16.82,9,15.6,30,0,55.4558,-10.0314,112,48
190,2013-07-23 13:06:11,1374584771,55.47963,-9.98233,8,2,2013-07-23 13:00:00,1374584400,16.85,9,15.6,30,60,55.4558,-10.0314,112,48
191,2013-07-23 14:06:11,1374588371,55.43011,-9.97137,3,3,2013-07-23 14:00:00,1374588000,16.8,11,15.6,30,120,55.4558,-10.0314,112,48
192,2013-07-23 15:06:12,1374591972,55.4198,-10.0958,3,5,2013-07-23 15:00:00,1374591600,16.78,11,15.6,30,0,55.4524,-10.0416,56,44
193,2013-07-23 16:06:10,1374595570,55.47963,-9.98233,4,4,2013-07-23 16:00:00,1374595200,16.67,10,15.6,30,60,55.4524,-10.0416,56,44
194,2013-07-23 17:06:10,1374599170,55.47448,-10.04462,2,4,2013-07-23 17:00:00,1374598800,16.7,9,15.6,30,120,55.4524,-10.0416,56,44
195,2013-07-23 18:06:14,1374602774,55.65701,-13.28057,224,6,2013-07-23 18:00:00,1374602400,16.72,11,15.6,30,0,55.4588,-10.0336,32,48
196,2013-07-23 19:06:14,1374606374,55.47963,-9.98233,2,5,2013-07-23 19:00:00,1374606000,16.74,11,15.6,30,60,55.4588,-10.0336,32,48
197,2013-07-23 20:06:10,1374609970,55.5875,-12.60453,177,10,2013-07-23 20:00:00,1374609600,16.68,10,15.6,30,120,55.4588,-10.0336,32,48
198,2013-07-23 21:06:14,1374613574,55.47448,-10.04462,1,6,2013-07-23 21:00:00,1374613200,16.74,10,15.6,30,0,55.4608,-10.0292,32,44
199,2013-07-23 22:06:23,1374617183,55.56152,-12.26747,165,6,2013-07-23 22:00:00,1374616800,16.72,11,15.6,30,60,55.4608,-10.0292,32,44
200,2013-07-23 23:06:11,1374620771,55.43011,-9.97137,2,8,2013-07-23 23:00:00,1374620400,16.62,9,15.6,30,120,55.4608,-10.0292,32,44
201,2013-07-24 00:06:14,1374624374,55.42497,-10.0336,2,1,2013-07-24 00:00:00,1374624000,16.54,13,15.6,30,0,55.4532,-10.046,86,48
202,2013-07-24 01:06:13,1374627973,55.43598,-11.90493,141,3,2013-07-24 01:00:00,1374627600,16.55,12,15.6,30,60,55.4532,-10.046,86,48
203,2013-07-24 02:06:10,1374631570,55.42497,-10.0336,2,1,2013-07-24 02:00:00,1374631200,16.63,11,15.6,30,120,55.4532,-10.046,86,48
204,2013-07-24 03:06:22,1374635182,55.39366,-11.5081,116,1,2013-07-24 03:00:00,1374634800,16.61,11,15.6,30,0,55.45,-10.0582,80,44
205,2013-07-24 04:06:11,1374638771,55.4198,-10.0958,2,5,2013-07-24 04:00:00,1374638400,16.6,14,15.6,30,60,55.45,-10.0582,80,44
206,2013-07-24 05:06:18,1374642378,55.44893,-10.10689,3,1,2013-07-24 05:00:00,1374642000,16.57,10,15.6,30,120,55.45,-10.0582,80,44
207,2013-07-24 06:06:11,1374645971,55.47963,-9.98233,2,2,2013-07-24 06:00:00,1374645600,16.56,13,15.6,30,0,55.4546,-10.0524,62,44
208,2013-07-24 07:06:10,1374649570,55.53477,-8.32718,128,4,2013-07-24 07:00:00,1374649200,16.56,10,15.6,30,60,55.4546,-10.0524,62,44
209,2013-07-24 08:06:27,1374653187,55.46931,-10.10689,3,0,2013-07-24 08:00:00,1374652800,16.55,13,15.6,30,120,55.4546,-10.0524,62,44
210,2013-07-24 09:06:14,1374656774,55.4198,-10.0958,11,1,2013-07-24 09:00:00,1374656400,16.47,11,15.6,30,0,55.4552,-10.0426,62,48
211,2013-07-24 10:06:14,1374660374,55.47448,-10.04462,5,1,2013-07-24 10:00:00,1374660000,16.42,15,15.6,30,60,55.4552,-10.0426,62,48
212,2013-07-24 11:06:13,1374663973,55.43011,-9.97137,3,3,2013-07-24 11:00:00,1374663600,16.42,13,15.6,30,120,55.4552,-10.0426,62,48
213,2013-07-24 12:06:19,1374667579,55.46931,-10.10689,4,2,2013-07-24 12:00:00,1374667200,16.53,12,15.6,30,0,55.4462,-10.0574,110,36
214,2013-07-24 13:06:12,1374671172,55.42497,-10.0336,6,3,2013-07-24 13:00:00,1374670800,16.5,12,15.6,30,60,55.4462,-10.0574,110,36
215,2013-07-24 14:06:12,1374674772,55.42497,-10.0336,2,4,2013-07-24 14:00:00,1374674400,16.48,14,15.6,30,120,55.4462,-10.0574,110,36
216,2013-07-24 15:06:14,1374678374,55.46931,-10.10689,2,2,2013-07-24 15:00:00,1374678000,16.59,16,15.6,30,0,55.447,-10.0756,70,48
217,2013-07-24 16:06:13,1374681973,55.4198,-10.0958,13,8,2013-07-24 16:00:00,1374681600,16.59,12,15.6,30,60,55.447,-10.0756,70,48
218,2013-07-24 17:06:11,1374685571,55.47963,-9.98233,13,6,2013-07-24 17:00:00,1374685200,16.59,13,15.6,30,120,55.447,-10.0756,70,48
219,2013-07-24 18:06:13,1374689173,55.77064,-14.84099,312,7,2013-07-24 18:00:00,1374688800,16.57,12,15.6,30,0,55.4552,-10.0668,32,48
220,2013-07-24 19:06:11,1374692771,55.44893,-10.10689,2,7,2013-07-24 19:00:00,1374692400,16.59,15,15.6,30,60,55.4552,-10.0668,32,48
221,2013-07-24 20:06:10,1374696370,55.70638,-14.94783,321,3,2013-07-24 20:00:00,1374696000,16.59,12,15.6,30,120,55.4552,-10.0668,32,48
222,2013-07-24 21:06:11,1374699971,55.47448,-10.04462,4,6,2013-07-24 21:00:00,1374699600,16.55,12,15.6,30,0,55.4536,-10.0486,52,44
223,2013-07-24 22:06:11,1374703571,55.4198,-10.0958,2,5,2013-07-24 22:00:00,1374703200,16.53,11,15.6,30,60,55.4536,-10.0486,52,44
224,2013-07-24 23:06:11,1374707171,55.47448,-10.04462,3,1,2013-07-24 23:00:00,1374706800,16.49,13,15.6,30,120,55.4536,-10.0486,52,44
225,2013-07-25 00:06:12,1374710772,55.42497,-10.0336,3,5,2013-07-25 00:00:00,1374710400,16.46,13,15.6,30,0,55.4428,-10.063,80,44
226,2013-07-25 01:06:21,1374714381,55.37023,-14.35787,281,2,2013-07-25 01:00:00,1374714000,16.51,10,15.6,30,60,55.4428,-10.063,80,44
227,2013-07-25 02:06:12,1374717972,55.4198,-10.0958,2,5,2013-07-25 02:00:00,1374717600,16.52,10,15.6,30,120,55.4428,-10.063,80,44
228,2013-07-25 03:06:13,1374721573,55.27526,-13.15038,210,6,2013-07-25 03:00:00,1374721200,16.53,12,15.6,30,0,55.4368,-10.0854,62,48
229,2013-07-25 04:06:13,1374725173,55.42497,-10.0336,3,2,2013-07-25 04:00:00,1374724800,16.52,9,15.6,30,60,55.4368,-10.0854,62,48
230,2013-07-25 05:06:11,1374728771,55.4245,-10.73997,78,8,2013-07-25 05:00:00,1374728400,16.49,10,15.6,30,120,55.4368,-10.0854,62,48